Weather History for Yoho Park, BC

Change the Weather History Date:

Monday, November 5, 2012

  Actual Average Record
Temperature  
Mean Temperature 34 °F -  
Max Temperature 40 °F - - ()
Min Temperature 27 °F - - ()
Degree Days  
Heating Degree Days 32    
Moisture  
Dew Point 31 °F    
Average Humidity 88    
Maximum Humidity 100    
Minimum Humidity 52    
Precipitation  
Precipitation 0.00 in - - ()
Sea Level Pressure  
Sea Level Pressure 30.19 in    
Wind  
Wind Speed 13 mph ()    
Max Wind Speed 23 mph    
Max Gust Speed -    
T = Trace of Precipitation, MM = Missing Value Source: Averaged Metar Reports

Daily Weather History Graph

Daily Weather History Graph

Search for Another Location

Airport:

Trip Planner

Search our weather history database for the weather conditions in past years. The results will help you decide how hot, cold, wet, or windy it might be!

Date:

Astronomy

Nov. 05, 2012 Rise Set
Actual Time 7:46 AM MST 5:10 PM MST
Civil Twilight 7:11 AM MST 5:46 PM MST
Nautical Twilight 6:31 AM MST 6:25 PM MST
Astronomical Twilight 5:52 AM MST 7:04 PM MST
Moon 10:53 PM MST (11/5) 1:09 PM MST (11/5)
Length of Visible Light 10h 34m
Length of Day
9h 23m
Waning Gibbous, 62% of the Moon is Illuminated
Nov 5
Waning Gibbous
Nov 6
Last Quarter
Nov 13
New
Nov 20
First Quarter
Nov 28
Full

Hourly Weather History & Observations

Time (MST) Temp. Windchill Dew Point Humidity Pressure Visibility Wind Dir Wind Speed Gust Speed Precip Events Conditions
12:00 AM 35.8 °F 26.1 °F 35.2 °F 98% 30.15 in - West 16.1 mph - N/A   Unknown
1:00 AM 35.2 °F 25.4 °F 34.7 °F 98% 30.11 in - West 16.1 mph - N/A   Unknown
2:00 AM 35.6 °F 25.9 °F 35.2 °F 99% 30.07 in - West 16.1 mph - N/A   Unknown
3:00 AM 36.0 °F 26.0 °F 35.6 °F 99% 30.01 in - West 17.3 mph - N/A   Unknown
4:00 AM 35.8 °F 26.9 °F 35.4 °F 99% 30.00 in - West 13.8 mph - N/A   Unknown
5:00 AM 35 °F - 35 °F 100% 30.01 in - West 10.4 mph - -  
5:00 AM 35.4 °F 27.8 °F 35.1 °F 99% 30.01 in - West 10.4 mph - N/A   Unknown
6:00 AM 35.2 °F 28.1 °F 34.7 °F 98% 30.01 in - West 9.2 mph - N/A   Unknown
7:00 AM 34.7 °F 26.4 °F 34.2 °F 98% 30.03 in - West 11.5 mph - N/A   Unknown
8:00 AM 34.7 °F 25.5 °F 34.3 °F 99% 30.08 in - WSW 13.8 mph - N/A   Unknown
9:00 AM 34.7 °F 24.7 °F 34.2 °F 98% 30.14 in - WSW 16.1 mph - N/A   Unknown
10:00 AM 34.7 °F 24.3 °F 34.2 °F 98% 30.16 in - WSW 17.3 mph - N/A   Unknown
11:00 AM 38 °F - 34 °F 81% 30.16 in - WSW 23.0 mph - -  
11:00 AM 38.3 °F 27.6 °F 34.3 °F 86% 30.16 in - WSW 23.0 mph - N/A   Unknown
12:00 PM 39.6 °F 30.3 °F 30.6 °F 70% 30.19 in - WSW 18.4 mph - N/A   Unknown
1:00 PM 38.7 °F 28.0 °F 25.9 °F 60% 30.20 in - WSW 23.0 mph - N/A   Unknown
2:00 PM 40.5 °F 31.2 °F 24.3 °F 52% 30.21 in - SW 19.6 mph - N/A   Unknown
4:00 PM 33.8 °F 24.3 °F 30.6 °F 88% 30.29 in - WSW 13.8 mph - N/A   Unknown
5:00 PM 32 °F - 28 °F 81% 30.31 in - West 11.5 mph - -  
5:00 PM 31.8 °F 22.8 °F 28.4 °F 87% 30.31 in - West 11.5 mph - N/A   Unknown
6:00 PM 31.1 °F 21.9 °F 28.2 °F 89% 30.34 in - West 11.5 mph - N/A   Unknown
7:00 PM 30.2 °F 22.6 °F 27.0 °F 88% 30.34 in - West 8.1 mph - N/A   Unknown
8:00 PM 28.8 °F 20.2 °F 25.2 °F 86% 30.37 in - West 9.2 mph - N/A   Unknown
9:00 PM 27.9 °F 20.6 °F 24.1 °F 86% 30.38 in - West 6.9 mph - N/A   Unknown
10:00 PM 27.5 °F 22.2 °F 24.1 °F 87% 30.36 in - West 4.6 mph - N/A   Unknown
11:00 PM 28 °F - 24 °F 78% 30.35 in - SW 6.9 mph - -  
11:00 PM 27.7 °F 20.4 °F 23.9 °F 86% 30.35 in - SW 6.9 mph - N/A   Unknown